Satellite-Ground Cal/Val Site Overpasses Predictions

Prediction of Satellite NPP Overpassing Cal/Val Site: Antarctic Dome C

Ground Cal/Val Site Location: Latitude: -75.10, Longitude: 123.35; Satellite-Ground Site NADIR distance within 100 km.

Table of predicted overpasses for the next 14.0 days since TLE Epoch: 12/28/2018
Interval Starting Time Ending Time Minimum Distance Time Minimum Distance (km)
1 12/28/2018 15:08:02 12/28/2018 15:08:08 12/28/2018 15:08:05 97.50
2 12/29/2018 14:49:00 12/29/2018 14:49:29 12/29/2018 14:49:14 14.16
3 12/31/2018 07:31:49 12/31/2018 07:32:18 12/31/2018 07:32:04 4.22
4 01/03/2019 14:55:16 01/03/2019 14:55:44 01/03/2019 14:55:30 22.65
5 01/04/2019 14:36:33 01/04/2019 14:36:48 01/04/2019 14:36:40 84.49
6 01/05/2019 07:38:06 01/05/2019 07:38:33 01/05/2019 07:38:19 38.99
7 01/06/2019 07:19:18 01/06/2019 07:19:39 01/06/2019 07:19:29 70.93
8 01/08/2019 15:01:33 01/08/2019 15:01:57 01/08/2019 15:01:45 59.74
9 01/09/2019 14:42:43 01/09/2019 14:43:08 01/09/2019 14:42:56 49.61
10 01/10/2019 07:44:25 01/10/2019 07:44:44 01/10/2019 07:44:34 74.20


NCC Satellite Cal/Val Overpasses Prediction Service
